Terminal Aerodrome Forecast
Issued by NWS

Home | Current Version | Previous Version | Text Only | Print | Product List | Glossary On
Versions: 1 2 3 4 5 6 7 8 9 10 11 12 13 14 15
000
FTUS42 TJSJ 182300
TAFIST
TAF
TIST 182322Z 1900/1924 10011KT P6SM FEW020 SCT040
     FM190230 08010KT P6SM VCSH SCT022 SCT040
     FM191430 12016KT P6SM FEW028 SCT070
     FM192300 09014KT P6SM FEW025 SCT050 SCT070=

USA.gov is the U.S. government's official web portal to all federal, state and local government web resources and services.